Weather reports worldwide

Advertisment
Messina, Italy (16420): temperature & dewpoint: 17.01.2019 03:00:00 - 23.01.2019 03:00:00 (CET)Messina, Italy (16420): wind speed: 17.01.2019 03:00:00 - 23.01.2019 03:00:00 (CET)Messina, Italy (16420): wind direction: 17.01.2019 03:00:00 - 23.01.2019 03:00:00 (CET)Messina, Italy (16420): reduced air pressure: 17.01.2019 03:00:00 - 23.01.2019 03:00:00 (CET)Messina, Italy (16420): visibility: 17.01.2019 03:00:00 - 23.01.2019 03:00:00 (CET)Messina, Italy (16420): sunshine duration: 17.01.2019 03:00:00 - 23.01.2019 03:00:00 (CET)
Date & Time tt [°C] td [°C] ff [km/h] ff [kn] dd ppp [hPa] vv [km] sd [min]
23.01.2019 03:00:00 10,2 5,0 0 0 N 1005,4 10 -
23.01.2019 02:00:00 10,4 6,2 4 2 NNW 1005,7 10 -
23.01.2019 01:00:00 10,8 7,5 5 3 NNE 1006,5 10 -
23.01.2019 00:00:00 10,8 6,9 0 0 N 1006,7 10 -
22.01.2019 23:00:00 10,8 7,1 5 3 NNW 1007,2 10 -
22.01.2019 22:00:00 11,0 6,9 8 4 NW 1007,2 10 -
22.01.2019 21:00:00 10,8 6,9 4 2 NNE 1007,2 10 -
22.01.2019 20:00:00 11,4 7,7 8 4 NW 1007,5 10 -
22.01.2019 19:00:00 11,8 7,7 8 4 WNW 1007,5 10 -
22.01.2019 18:00:00 11,4 5,9 5 3 ENE 1007,2 12 0
22.01.2019 17:00:00 11,6 5,7 8 4 NNE 1007,4 16 0
22.01.2019 16:00:00 12,0 6,1 13 7 NW 1007,4 16 0
22.01.2019 15:00:00 12,0 6,3 8 4 NW 1007,2 16 18
22.01.2019 14:00:00 12,0 6,9 21 11 WNW 1007,2 12 36
22.01.2019 13:00:00 12,4 9,2 28 15 NW 1007,6 9 30
22.01.2019 12:00:00 12,8 8,9 26 14 WNW 1007,6 12 0
22.01.2019 11:00:00 12,4 9,4 26 14 WNW 1007,6 12 12
22.01.2019 10:00:00 13,0 10,2 13 7 WNW 1007,5 4,0 0
22.01.2019 09:00:00 13,2 9,8 11 6 SW 1006,8 20 36
22.01.2019 08:00:00 12,2 9,9 11 6 WSW 1006,6 18 0
22.01.2019 07:00:00 12,2 9,9 11 6 WSW 1006,6 16 -
22.01.2019 06:00:00 12,6 10,7 8 4 WSW 1006,8 12 -
22.01.2019 05:00:00 12,6 11,0 8 4 WSW 1007,3 12 -
22.01.2019 04:00:00 12,4 11,1 8 4 WSW 1007,7 12 -
22.01.2019 03:00:00 11,6 10,7 4 2 W 1009,0 12 -
22.01.2019 02:00:00 11,6 10,8 8 4 WNW 1009,3 12 -
22.01.2019 01:00:00 11,4 10,6 2 1 W 1009,6 12 -
22.01.2019 00:00:00 11,6 9,5 5 3 WNW 1010,2 10 -
21.01.2019 23:00:00 12,4 9,0 13 7 WSW 1010,3 10 -
21.01.2019 22:00:00 12,2 11,4 8 4 WSW 1010,4 4,0 -
21.01.2019 21:00:00 12,0 11,4 8 4 SW 1010,5 10 -
21.01.2019 20:00:00 11,8 11,0 9 5 WSW 1010,6 7 -
21.01.2019 19:00:00 12,4 8,3 18 10 WSW 1010,6 10 -
21.01.2019 18:00:00 12,0 9,0 11 6 SW 1010,5 10 -
21.01.2019 17:00:00 12,0 9,4 15 8 SW 1010,5 10 0
21.01.2019 16:00:00 11,8 10,5 15 8 SSW 1011,1 8 0
21.01.2019 15:00:00 12,0 11,1 13 7 WSW 1011,5 10 0
21.01.2019 14:00:00 10,4 10,1 13 7 SW 1011,9 8 0
21.01.2019 13:00:00 13,6 8,2 18 10 SSW 1012,3 16 -
21.01.2019 12:00:00 13,6 8,7 16 9 SSW 1012,7 16 12
21.01.2019 11:00:00 13,6 8,7 22 12 SSW 1013,5 16 48
21.01.2019 10:00:00 12,8 7,7 15 8 SSW 1013,6 16 0
21.01.2019 09:00:00 12,8 8,5 21 11 SSW 1013,4 16 0
21.01.2019 08:00:00 12,4 8,5 15 8 SSW 1013,4 16 0
21.01.2019 07:00:00 12,2 8,9 8 4 SSW 1013,5 16 -
21.01.2019 06:00:00 12,0 8,7 9 5 SW 1013,3 16 -
21.01.2019 05:00:00 11,8 8,1 9 5 SW 1013,3 16 -
21.01.2019 04:00:00 11,8 8,1 9 5 WSW 1013,6 16 -
21.01.2019 03:00:00 11,0 8,6 8 4 SW 1014,0 16 -
21.01.2019 02:00:00 11,0 8,4 4 2 SW 1014,0 16 -
21.01.2019 01:00:00 10,8 8,9 9 5 WSW 1014,3 16 -
21.01.2019 00:00:00 10,4 9,3 0 0 N 1014,5 16 -
20.01.2019 23:00:00 10,8 9,1 0 0 N 1014,4 16 -
20.01.2019 22:00:00 10,8 8,7 2 1 SSE 1013,9 16 -
20.01.2019 21:00:00 11,0 8,7 2 1 W 1013,6 16 -
20.01.2019 20:00:00 11,6 9,0 0 0 N 1013,6 15 -
20.01.2019 19:00:00 11,8 8,5 2 1 N 1013,5 15 -
20.01.2019 18:00:00 12,2 6,9 4 2 NW 1013,1 15 -
20.01.2019 17:00:00 13,2 6,5 5 3 E 1012,8 18 0
20.01.2019 16:00:00 13,8 7,4 4 2 SW 1012,7 18 0
20.01.2019 15:00:00 14,6 6,9 11 6 SSW 1012,7 18 42
20.01.2019 14:00:00 14,4 5,5 11 6 SSW 1012,7 18 42
20.01.2019 13:00:00 15,0 7,1 11 6 SSW 1013,5 18 60
20.01.2019 12:00:00 14,6 6,9 15 8 SSW 1013,9 18 60
20.01.2019 11:00:00 14,4 7,5 11 6 SSW 1014,3 18 54
20.01.2019 10:00:00 12,0 7,1 8 4 WSW 1014,2 18 18
20.01.2019 09:00:00 10,4 7,1 4 2 WSW 1013,8 18 12
20.01.2019 08:00:00 8,8 7,2 0 0 N 1013,6 18 12
20.01.2019 07:00:00 8,6 7,8 4 2 W 1013,6 15 -
20.01.2019 06:00:00 8,4 7,2 2 1 W 1013,7 15 -
20.01.2019 05:00:00 8,6 7,5 0 0 N 1013,6 15 -
20.01.2019 04:00:00 9,0 8,4 0 0 N 1013,7 15 -
20.01.2019 03:00:00 9,0 8,2 0 0 N 1015,2 15 -
20.01.2019 02:00:00 9,2 7,7 4 2 SW 1015,3 15 -
20.01.2019 01:00:00 10,0 7,6 0 0 N 1015,4 15 -
20.01.2019 00:00:00 11,0 7,9 5 3 NW 1014,6 15 -
19.01.2019 23:00:00 11,0 8,0 11 6 NW 1014,5 15 -
19.01.2019 22:00:00 11,2 8,6 9 5 NW 1014,2 15 -
19.01.2019 21:00:00 11,2 8,4 8 4 NW 1014,1 15 -
19.01.2019 20:00:00 11,2 8,4 5 3 NW 1014,0 16 -
19.01.2019 19:00:00 11,4 8,4 8 4 NW 1013,8 16 -
19.01.2019 18:00:00 11,8 7,7 4 2 N 1013,6 16 -
19.01.2019 17:00:00 12,8 8,1 5 3 NNE 1013,4 20 24
19.01.2019 16:00:00 14,6 6,7 4 2 N 1013,4 20 60
19.01.2019 15:00:00 14,0 6,6 11 6 NW 1013,4 20 60
19.01.2019 14:00:00 14,6 6,2 9 5 NNW 1013,5 20 60
19.01.2019 13:00:00 15,8 6,0 15 8 NE 1014,1 20 60
19.01.2019 12:00:00 15,2 4,0 9 5 NE 1014,7 20 60
19.01.2019 11:00:00 14,0 8,0 8 4 NE 1014,8 20 60
19.01.2019 10:00:00 13,8 8,4 9 5 NE 1014,6 20 60
19.01.2019 09:00:00 12,8 5,9 5 3 NNW 1014,3 20 60
19.01.2019 08:00:00 11,0 6,0 8 4 NNW 1014,1 20 0
19.01.2019 07:00:00 10,8 5,4 5 3 N 1014,1 16 -
19.01.2019 06:00:00 11,0 5,5 8 4 NW 1014,1 12 -
19.01.2019 05:00:00 11,2 2,8 15 8 NW 1014,4 12 -
19.01.2019 04:00:00 10,4 3,4 5 3 NW 1014,6 10 -
19.01.2019 03:00:00 9,6 6,0 8 4 N 1015,0 12 -
19.01.2019 02:00:00 9,2 7,5 0 0 N 1015,1 12 -
19.01.2019 01:00:00 9,6 7,7 4 2 WSW 1015,4 12 -
19.01.2019 00:00:00 9,4 8,0 2 1 WSW 1015,6 12 -
18.01.2019 23:00:00 9,8 8,4 2 1 SSW 1015,6 10 -
18.01.2019 22:00:00 10,0 8,6 0 0 N 1015,6 12 -
18.01.2019 21:00:00 10,4 8,3 0 0 N 1015,6 12 -
18.01.2019 20:00:00 10,8 7,9 0 0 N 1015,7 15 -
18.01.2019 19:00:00 11,0 7,3 2 1 WNW 1015,6 15 -
18.01.2019 18:00:00 12,0 5,6 8 4 NW 1015,5 15 -
18.01.2019 17:00:00 13,2 7,0 0 0 N 1015,5 15 -
18.01.2019 16:00:00 14,0 9,0 8 4 SSW 1015,4 10 0
18.01.2019 15:00:00 14,6 10,0 9 5 SSW 1015,5 15 48
18.01.2019 14:00:00 14,8 9,0 9 5 SSW 1015,6 15 12
18.01.2019 13:00:00 15,0 7,8 11 6 SSW 1016,2 15 60
18.01.2019 12:00:00 13,2 8,5 11 6 SSW 1016,7 15 48
18.01.2019 11:00:00 13,2 8,3 9 5 S 1016,8 15 24
18.01.2019 10:00:00 13,4 8,9 9 5 SW 1016,8 14 0
18.01.2019 09:00:00 13,2 8,9 5 3 SW 1016,8 16 12
18.01.2019 08:00:00 11,2 7,7 5 3 WSW 1016,5 16 0
18.01.2019 07:00:00 10,8 7,7 9 5 WSW 1016,5 16 -
18.01.2019 06:00:00 11,0 7,7 9 5 WSW 1016,6 12 -
18.01.2019 05:00:00 11,0 7,7 9 5 WSW 1017,1 10 -
18.01.2019 04:00:00 11,0 8,0 13 7 WSW 1017,6 12 -
18.01.2019 03:00:00 11,0 8,9 11 6 WSW 1018,2 12 -
18.01.2019 02:00:00 11,2 9,1 9 5 WSW 1018,4 12 -
18.01.2019 01:00:00 11,4 9,0 5 3 W 1018,6 12 -
18.01.2019 00:00:00 11,4 9,3 8 4 WSW 1019,1 12 -
17.01.2019 23:00:00 11,4 8,4 9 5 WSW 1019,1 12 -
17.01.2019 22:00:00 11,6 9,0 9 5 WSW 1019,1 12 -
17.01.2019 21:00:00 12,0 9,7 8 4 WSW 1019,1 12 -
17.01.2019 20:00:00 12,0 9,9 5 3 WSW 1019,0 12 -
17.01.2019 19:00:00 11,6 10,0 8 4 N 1019,0 10 -
17.01.2019 18:00:00 11,8 10,7 8 4 NNW 1019,0 8 -
17.01.2019 17:00:00 12,0 9,9 13 7 SSW 1019,2 12 0
17.01.2019 16:00:00 13,0 9,1 15 8 SSW 1019,2 20 0
17.01.2019 15:00:00 - - - - - - - -
17.01.2019 14:00:00 - - - - - - - -
17.01.2019 13:00:00 13,2 5,4 11 6 WSW 1020,8 20 60
17.01.2019 12:00:00 - - - - - - - -
17.01.2019 11:00:00 - - - - - - - -
17.01.2019 10:00:00 11,8 3,7 8 4 SW 1022,0 20 60
17.01.2019 09:00:00 10,0 1,1 4 2 SE 1021,8 20 60
17.01.2019 08:00:00 7,8 2,5 2 1 WSW 1021,9 20 18
17.01.2019 07:00:00 8,0 3,1 5 3 NW 1022,4 18 -
17.01.2019 06:00:00 7,8 2,1 8 4 N 1022,6 15 -
17.01.2019 05:00:00 7,8 1,6 5 3 N 1022,7 15 -
17.01.2019 04:00:00 7,8 1,2 5 3 N 1023,2 10 -
17.01.2019 03:00:00 7,0 1,9 0 0 N 1023,7 15 -

tt = temperature
td = dewpoint
ff = wind speed
dd = wind direction
ppp = reduced air pressure
vv = visibility
sd = sunshine duration

Next stations